TimeCST,TemperatureF,Dew PointF,Humidity,Sea Level PressureIn,VisibilityMPH,Wind Direction,Wind SpeedMPH,Gust SpeedMPH,PrecipitationIn,Events,Conditions,WindDirDegrees,DateUTC
12:53 AM,28.0,24.1,85,30.38,10.0,West,3.5,-,N/A,,Clear,270,2013-01-03 06:53:00
1:53 AM,27.0,23.0,85,30.38,10.0,Calm,Calm,-,N/A,,Clear,0,2013-01-03 07:53:00
2:53 AM,25.0,21.0,85,30.40,10.0,Calm,Calm,-,N/A,,Clear,0,2013-01-03 08:53:00
3:53 AM,23.0,21.0,92,30.41,10.0,NW,3.5,-,N/A,,Clear,320,2013-01-03 09:53:00
4:53 AM,21.9,19.0,89,30.41,10.0,Calm,Calm,-,N/A,,Clear,0,2013-01-03 10:53:00
6:53 AM,26.1,21.9,84,30.46,10.0,NW,4.6,-,N/A,,Clear,310,2013-01-03 12:53:00
7:53 AM,24.1,19.0,81,30.48,10.0,Calm,Calm,-,N/A,,Clear,0,2013-01-03 13:53:00
8:53 AM,28.0,24.1,85,30.50,10.0,Calm,Calm,-,N/A,,Clear,0,2013-01-03 14:53:00
9:53 AM,37.0,24.1,59,30.50,10.0,North,12.7,-,N/A,,Clear,360,2013-01-03 15:53:00
10:53 AM,39.9,24.1,53,30.50,10.0,North,10.4,-,N/A,,Clear,10,2013-01-03 16:53:00
11:53 AM,43.0,24.1,47,30.49,10.0,NNE,6.9,-,N/A,,Clear,30,2013-01-03 17:53:00
12:53 PM,45.0,24.1,44,30.46,10.0,North,11.5,-,N/A,,Clear,360,2013-01-03 18:53:00
1:53 PM,46.0,24.1,42,30.44,10.0,North,10.4,-,N/A,,Clear,350,2013-01-03 19:53:00
2:53 PM,46.9,21.9,37,30.44,10.0,North,12.7,-,N/A,,Clear,350,2013-01-03 20:53:00
3:53 PM,46.0,21.9,39,30.44,10.0,NNW,8.1,-,N/A,,Clear,340,2013-01-03 21:53:00
4:53 PM,44.1,21.9,42,30.45,10.0,NNE,10.4,-,N/A,,Clear,20,2013-01-03 22:53:00
5:53 PM,39.0,21.9,50,30.47,10.0,NNW,3.5,-,N/A,,Clear,340,2013-01-03 23:53:00
6:53 PM,30.9,21.0,67,30.47,10.0,Calm,Calm,-,N/A,,Clear,0,2013-01-04 00:53:00
7:53 PM,27.0,21.0,78,30.48,10.0,NW,3.5,-,N/A,,Clear,310,2013-01-04 01:53:00
8:53 PM,27.0,21.0,78,30.49,10.0,Calm,Calm,-,N/A,,Clear,0,2013-01-04 02:53:00
9:53 PM,25.0,21.9,88,30.49,10.0,Calm,Calm,-,N/A,,Clear,0,2013-01-04 03:53:00
10:53 PM,23.0,19.9,88,30.50,10.0,Calm,Calm,-,N/A,,Clear,0,2013-01-04 04:53:00
11:53 PM,24.1,19.9,84,30.49,10.0,Calm,Calm,-,N/A,,Clear,0,2013-01-04 05:53:00